Location: Unspecified
(22.6800°N, 112.2000°E)
Time: 19:09:54
(UTC+08:00)

SL-16 DEB - Visible Passes

Search period start: 01 December 2021 00:00
Search period end: 11 December 2021 00:00
Orbit: 801 x 926 km, 71.2° (Epoch: 26 November)

Date Brightness Start Highest point End Pass type
(mag) Time Alt. Az. Time Alt. Az. Time Alt. Az.
01 Dec ? 06:08:33 10° NNE 06:13:10 25° ENE 06:17:39 10° ESE visible
01 Dec ? 19:08:48 10° SSE 19:13:15 27° ESE 19:13:15 27° ESE visible
01 Dec ? 20:52:53 10° SW 20:55:36 22° WSW 20:55:36 22° WSW visible
02 Dec ? 06:00:03 10° N 06:04:48 27° ENE 06:09:26 10° SE visible
02 Dec ? 19:00:15 10° SSE 19:05:24 30° ESE 19:06:14 29° E visible
02 Dec ? 20:44:40 10° SW 20:48:35 26° W 20:48:35 26° W visible
03 Dec ? 05:51:34 10° N 05:56:27 29° ENE 06:01:12 10° SE visible
03 Dec ? 18:51:43 10° SSE 18:57:00 32° ESE 18:59:13 25° ENE visible
03 Dec ? 20:36:28 10° WSW 20:41:24 25° WNW 20:41:34 25° WNW visible
04 Dec ? 05:43:04 10° N 05:48:05 32° ENE 05:52:57 10° SE visible
04 Dec ? 18:43:11 10° SSE 18:48:37 35° ESE 18:52:11 19° NE visible
04 Dec ? 20:28:18 10° WSW 20:33:03 24° WNW 20:34:32 21° NW visible
05 Dec ? 05:34:36 10° N 05:39:43 34° ENE 05:44:41 10° SE visible
05 Dec ? 18:34:41 10° S 18:40:13 38° ESE 18:45:06 13° NE visible
05 Dec ? 20:20:09 10° WSW 20:24:42 22° WNW 20:27:27 16° NNW visible
06 Dec ? 05:26:09 10° N 05:31:21 37° ENE 05:36:24 10° SE visible
06 Dec ? 18:26:11 10° S 18:31:49 42° ESE 18:37:30 10° NE visible
06 Dec ? 20:12:01 10° WSW 20:16:21 20° WNW 20:20:18 11° NNW visible
07 Dec ? 05:17:40 10° N 05:22:59 41° ENE 05:28:06 10° SE visible
07 Dec ? 18:17:41 10° S 18:23:26 45° ESE 18:29:11 10° NNE visible
07 Dec ? 20:03:54 10° WSW 20:08:01 19° WNW 20:12:08 10° NNW visible
08 Dec ? 05:09:55 13° N 05:14:36 45° ENE 05:19:48 10° SE visible
08 Dec ? 18:09:13 10° S 18:15:02 49° ESE 18:20:52 10° NNE visible
08 Dec ? 19:55:50 10° WSW 19:59:40 17° WNW 20:03:30 10° NNW visible
09 Dec ? 05:02:49 22° N 05:06:13 49° ENE 05:11:28 10° SE visible
09 Dec ? 18:00:45 10° S 18:06:39 53° ESE 18:12:33 10° NNE visible
09 Dec ? 19:47:49 10° W 19:51:20 16° WNW 19:54:51 10° NNW visible
10 Dec ? 04:55:45 35° NNE 04:57:50 53° ENE 05:03:08 10° SSE visible
10 Dec ? 19:39:49 10° W 19:42:59 14° WNW 19:46:09 10° NNW visible
